iso_date,Year,Hour,Min,DOY,POS_DOY,Lat,Lon,BP,Ts,Ta,has_bp,has_ts,has_ta,BuoyID,Buoy_Type,Buoy_Owner,Logistics,Hemisphere
2022-07-28T17:00:14Z,2022,17,0,209.7085,209.7085,89.96352,-47.78185,-999.0,-999.0,-999.0,no,no,no,300534061347620,T_String,AWI,unknown,North
2022-07-28T19:00:11Z,2022,19,0,209.7918,209.7918,89.95824,-49.35108,-999.0,-999.0,-999.0,no,no,no,300534061347620,T_String,AWI,unknown,North
2022-07-29T03:00:17Z,2022,3,0,210.1252,210.1252,89.91549,-33.26931,-999.0,-999.0,-999.0,no,no,no,300534061347620,T_String,AWI,unknown,North
2022-07-29T05:00:14Z,2022,5,0,210.2085,210.2085,89.90721,-35.16457,-999.0,-999.0,-999.0,no,no,no,300534061347620,T_String,AWI,unknown,North
2022-07-29T09:00:17Z,2022,9,0,210.3752,210.3752,89.873,-39.71419,-999.0,-999.0,-999.0,no,no,no,300534061347620,T_String,AWI,unknown,North
2022-07-29T11:00:14Z,2022,11,0,210.4585,210.4585,89.86354,-36.23557,-999.0,-999.0,-999.0,no,no,no,300534061347620,T_String,AWI,unknown,North
2022-07-29T13:00:11Z,2022,13,0,210.5418,210.5418,89.84959,-34.16393,-999.0,-999.0,-999.0,no,no,no,300534061347620,T_String,AWI,unknown,North
2022-07-29T15:00:17Z,2022,15,0,210.6252,210.6252,89.8365,-34.01587,-999.0,-999.0,-999.0,no,no,no,300534061347620,T_String,AWI,unknown,North
2022-07-30T08:00:14Z,2022,8,0,211.3335,211.3335,89.79115,-66.15489,-999.0,-999.0,-999.0,no,no,no,300534061347620,T_String,AWI,unknown,North
2022-07-30T10:00:11Z,2022,10,0,211.4168,211.4168,89.78773,-64.47765,-999.0,-999.0,-999.0,no,no,no,300534061347620,T_String,AWI,unknown,North
2022-07-30T12:00:17Z,2022,12,0,211.5002,211.5002,89.78151,-62.28396,-999.0,-999.0,-999.0,no,no,no,300534061347620,T_String,AWI,unknown,North
2022-07-30T14:00:14Z,2022,14,0,211.5835,211.5835,89.77306,-60.70543,-999.0,-999.0,-999.0,no,no,no,300534061347620,T_String,AWI,unknown,North
2022-07-30T16:00:11Z,2022,16,0,211.6668,211.6668,89.76521,-60.25355,-999.0,-999.0,-999.0,no,no,no,300534061347620,T_String,AWI,unknown,North
2022-07-30T18:00:17Z,2022,18,0,211.7502,211.7502,89.76034,-60.26216,-999.0,-999.0,-999.0,no,no,no,300534061347620,T_String,AWI,unknown,North
2022-07-30T20:00:14Z,2022,20,0,211.8335,211.8335,89.7584,-59.77189,-999.0,-999.0,-999.0,no,no,no,300534061347620,T_String,AWI,unknown,North
2022-07-30T22:00:11Z,2022,22,0,211.9168,211.9168,89.75586,-58.45166,-999.0,-999.0,-999.0,no,no,no,300534061347620,T_String,AWI,unknown,North
2022-07-31T00:00:17Z,2022,0,0,212.0002,212.0002,89.75126,-56.57589,-999.0,-999.0,-999.0,no,no,no,300534061347620,T_String,AWI,unknown,North
2022-07-31T02:00:14Z,2022,2,0,212.0835,212.0835,89.74448,-54.90302,-999.0,-999.0,-999.0,no,no,no,300534061347620,T_String,AWI,unknown,North
2022-07-31T04:00:11Z,2022,4,0,212.1668,212.1668,89.73712,-53.61048,-999.0,-999.0,-999.0,no,no,no,300534061347620,T_String,AWI,unknown,North
2022-07-31T06:00:17Z,2022,6,0,212.2502,212.2502,89.7317,-52.85287,-999.0,-999.0,-999.0,no,no,no,300534061347620,T_String,AWI,unknown,North
2022-07-31T08:00:14Z,2022,8,0,212.3335,212.3335,89.72783,-52.01162,-999.0,-999.0,-999.0,no,no,no,300534061347620,T_String,AWI,unknown,North
2022-07-31T10:00:11Z,2022,10,0,212.4168,212.4168,89.72344,-50.7253,-999.0,-999.0,-999.0,no,no,no,300534061347620,T_String,AWI,unknown,North
2022-07-31T12:00:17Z,2022,12,0,212.5002,212.5002,89.71836,-49.20224,-999.0,-999.0,-999.0,no,no,no,300534061347620,T_String,AWI,unknown,North
2022-07-31T14:00:14Z,2022,14,0,212.5835,212.5835,89.71197,-47.74225,-999.0,-999.0,-999.0,no,no,no,300534061347620,T_String,AWI,unknown,North
2022-07-31T16:00:11Z,2022,16,0,212.6668,212.6668,89.70542,-46.61337,-999.0,-999.0,-999.0,no,no,no,300534061347620,T_String,AWI,unknown,North
2022-07-31T18:00:17Z,2022,18,0,212.7502,212.7502,89.69994,-45.62229,-999.0,-999.0,-999.0,no,no,no,300534061347620,T_String,AWI,unknown,North
2022-07-31T20:00:14Z,2022,20,0,212.8335,212.8335,89.69498,-44.3351,-999.0,-999.0,-999.0,no,no,no,300534061347620,T_String,AWI,unknown,North
2022-07-31T22:00:11Z,2022,22,0,212.9168,212.9168,89.68719,-42.43627,-999.0,-999.0,-999.0,no,no,no,300534061347620,T_String,AWI,unknown,North
2022-08-01T00:00:17Z,2022,0,0,213.0002,213.0002,89.67725,-40.31726,-999.0,-999.0,-999.0,no,no,no,300534061347620,T_String,AWI,unknown,North
2022-08-01T02:00:14Z,2022,2,0,213.0835,213.0835,89.66645,-38.4763,-999.0,-999.0,-999.0,no,no,no,300534061347620,T_String,AWI,unknown,North
2022-08-01T04:00:11Z,2022,4,0,213.1668,213.1668,89.65754,-36.97985,-999.0,-999.0,-999.0,no,no,no,300534061347620,T_String,AWI,unknown,North
2022-08-01T06:00:17Z,2022,6,0,213.2502,213.2502,89.65166,-35.73641,-999.0,-999.0,-999.0,no,no,no,300534061347620,T_String,AWI,unknown,North
2022-08-01T08:00:14Z,2022,8,0,213.3335,213.3335,89.64773,-34.24177,-999.0,-999.0,-999.0,no,no,no,300534061347620,T_String,AWI,unknown,North
2022-08-01T10:00:11Z,2022,10,0,213.4168,213.4168,89.64107,-32.38621,-999.0,-999.0,-999.0,no,no,no,300534061347620,T_String,AWI,unknown,North
2022-08-01T12:00:17Z,2022,12,0,213.5002,213.5002,89.63231,-30.47114,-999.0,-999.0,-999.0,no,no,no,300534061347620,T_String,AWI,unknown,North
2022-08-01T14:00:14Z,2022,14,0,213.5835,213.5835,89.62262,-28.75988,-999.0,-999.0,-999.0,no,no,no,300534061347620,T_String,AWI,unknown,North
2022-08-01T16:00:11Z,2022,16,0,213.6668,213.6668,89.61341,-27.36349,-999.0,-999.0,-999.0,no,no,no,300534061347620,T_String,AWI,unknown,North
2022-08-01T18:00:17Z,2022,18,0,213.7502,213.7502,89.60658,-25.9964,-999.0,-999.0,-999.0,no,no,no,300534061347620,T_String,AWI,unknown,North
2022-08-01T20:00:14Z,2022,20,0,213.8335,213.8335,89.59973,-24.4314,-999.0,-999.0,-999.0,no,no,no,300534061347620,T_String,AWI,unknown,North
2022-08-01T22:00:11Z,2022,22,0,213.9168,213.9168,89.59116,-22.70998,-999.0,-999.0,-999.0,no,no,no,300534061347620,T_String,AWI,unknown,North
2022-08-02T00:00:17Z,2022,0,0,214.0002,214.0002,89.58074,-21.02627,-999.0,-999.0,-999.0,no,no,no,300534061347620,T_String,AWI,unknown,North
2022-08-02T02:00:14Z,2022,2,0,214.0835,214.0835,89.56888,-19.58754,-999.0,-999.0,-999.0,no,no,no,300534061347620,T_String,AWI,unknown,North
2022-08-02T04:00:11Z,2022,4,0,214.1668,214.1668,89.55855,-18.45474,-999.0,-999.0,-999.0,no,no,no,300534061347620,T_String,AWI,unknown,North
2022-08-02T06:00:17Z,2022,6,0,214.2502,214.2502,89.55053,-17.44563,-999.0,-999.0,-999.0,no,no,no,300534061347620,T_String,AWI,unknown,North
2022-08-02T08:00:14Z,2022,8,0,214.3335,214.3335,89.5435,-16.36416,-999.0,-999.0,-999.0,no,no,no,300534061347620,T_String,AWI,unknown,North
2022-08-02T10:00:11Z,2022,10,0,214.4168,214.4168,89.5357,-15.05702,-999.0,-999.0,-999.0,no,no,no,300534061347620,T_String,AWI,unknown,North
2022-08-02T12:00:17Z,2022,12,0,214.5002,214.5002,89.52567,-13.61739,-999.0,-999.0,-999.0,no,no,no,300534061347620,T_String,AWI,unknown,North
2022-08-02T14:00:14Z,2022,14,0,214.5835,214.5835,89.51429,-12.37752,-999.0,-999.0,-999.0,no,no,no,300534061347620,T_String,AWI,unknown,North
2022-08-02T16:00:11Z,2022,16,0,214.6668,214.6668,89.50535,-11.40258,-999.0,-999.0,-999.0,no,no,no,300534061347620,T_String,AWI,unknown,North
2022-08-02T18:00:17Z,2022,18,0,214.7502,214.7502,89.49915,-10.41892,-999.0,-999.0,-999.0,no,no,no,300534061347620,T_String,AWI,unknown,North
2022-08-02T20:00:14Z,2022,20,0,214.8335,214.8335,89.49347,-9.2637,-999.0,-999.0,-999.0,no,no,no,300534061347620,T_String,AWI,unknown,North
2022-08-02T22:00:11Z,2022,22,0,214.9168,214.9168,89.48585,-7.93081,-999.0,-999.0,-999.0,no,no,no,300534061347620,T_String,AWI,unknown,North
2022-08-03T00:00:17Z,2022,0,0,215.0002,215.0002,89.4761,-6.62786,-999.0,-999.0,-999.0,no,no,no,300534061347620,T_String,AWI,unknown,North
2022-08-03T02:00:14Z,2022,2,0,215.0835,215.0835,89.46614,-5.5217,-999.0,-999.0,-999.0,no,no,no,300534061347620,T_String,AWI,unknown,North
2022-08-03T04:00:11Z,2022,4,0,215.1668,215.1668,89.4583,-4.47476,-999.0,-999.0,-999.0,no,no,no,300534061347620,T_String,AWI,unknown,North
2022-08-03T06:00:17Z,2022,6,0,215.2502,215.2502,89.45094,-3.43389,-999.0,-999.0,-999.0,no,no,no,300534061347620,T_String,AWI,unknown,North
2022-08-03T08:00:14Z,2022,8,0,215.3335,215.3335,89.44269,-2.32458,-999.0,-999.0,-999.0,no,no,no,300534061347620,T_String,AWI,unknown,North
2022-08-03T10:00:11Z,2022,10,0,215.4168,215.4168,89.43288,-1.36109,-999.0,-999.0,-999.0,no,no,no,300534061347620,T_String,AWI,unknown,North
2022-08-03T12:00:17Z,2022,12,0,215.5002,215.5002,89.42358,-0.66583,-999.0,-999.0,-999.0,no,no,no,300534061347620,T_String,AWI,unknown,North
2022-08-03T14:00:14Z,2022,14,0,215.5835,215.5835,89.41613,-0.0096,-999.0,-999.0,-999.0,no,no,no,300534061347620,T_String,AWI,unknown,North
2022-08-03T16:00:11Z,2022,16,0,215.6668,215.6668,89.4121,0.84525,-999.0,-999.0,-999.0,no,no,no,300534061347620,T_String,AWI,unknown,North
2022-08-03T18:00:17Z,2022,18,0,215.7502,215.7502,89.40864,1.91234,-999.0,-999.0,-999.0,no,no,no,300534061347620,T_String,AWI,unknown,North
2022-08-03T20:00:14Z,2022,20,0,215.8335,215.8335,89.40193,3.09513,-999.0,-999.0,-999.0,no,no,no,300534061347620,T_String,AWI,unknown,North
2022-08-03T22:00:11Z,2022,22,0,215.9168,215.9168,89.39061,4.09673,-999.0,-999.0,-999.0,no,no,no,300534061347620,T_String,AWI,unknown,North
2022-08-04T00:00:17Z,2022,0,0,216.0002,216.0002,89.37915,4.58663,-999.0,-999.0,-999.0,no,no,no,300534061347620,T_String,AWI,unknown,North
2022-08-04T02:00:14Z,2022,2,0,216.0835,216.0835,89.3718,4.83812,-999.0,-999.0,-999.0,no,no,no,300534061347620,T_String,AWI,unknown,North
2022-08-04T04:00:11Z,2022,4,0,216.1668,216.1668,89.36765,5.22215,-999.0,-999.0,-999.0,no,no,no,300534061347620,T_String,AWI,unknown,North
2022-08-04T06:00:17Z,2022,6,0,216.2502,216.2502,89.36308,5.87024,-999.0,-999.0,-999.0,no,no,no,300534061347620,T_String,AWI,unknown,North
2022-08-04T08:00:14Z,2022,8,0,216.3335,216.3335,89.35662,6.56554,-999.0,-999.0,-999.0,no,no,no,300534061347620,T_String,AWI,unknown,North
2022-08-04T10:00:11Z,2022,10,0,216.4168,216.4168,89.34737,6.98333,-999.0,-999.0,-999.0,no,no,no,300534061347620,T_String,AWI,unknown,North
2022-08-04T12:00:17Z,2022,12,0,216.5002,216.5002,89.33873,7.09387,-999.0,-999.0,-999.0,no,no,no,300534061347620,T_String,AWI,unknown,North
2022-08-04T14:00:14Z,2022,14,0,216.5835,216.5835,89.33329,7.0807,-999.0,-999.0,-999.0,no,no,no,300534061347620,T_String,AWI,unknown,North
2022-08-04T16:00:11Z,2022,16,0,216.6668,216.6668,89.3293,7.26353,-999.0,-999.0,-999.0,no,no,no,300534061347620,T_String,AWI,unknown,North
2022-08-04T18:00:17Z,2022,18,0,216.7502,216.7502,89.32534,7.67117,-999.0,-999.0,-999.0,no,no,no,300534061347620,T_String,AWI,unknown,North
2022-08-04T20:00:14Z,2022,20,0,216.8335,216.8335,89.32014,8.16085,-999.0,-999.0,-999.0,no,no,no,300534061347620,T_String,AWI,unknown,North
2022-08-04T22:00:11Z,2022,22,0,216.9168,216.9168,89.31362,8.52529,-999.0,-999.0,-999.0,no,no,no,300534061347620,T_String,AWI,unknown,North
2022-08-05T00:00:17Z,2022,0,0,217.0002,217.0002,89.30796,8.66454,-999.0,-999.0,-999.0,no,no,no,300534061347620,T_String,AWI,unknown,North
2022-08-05T02:00:14Z,2022,2,0,217.0835,217.0835,89.30571,8.76623,-999.0,-999.0,-999.0,no,no,no,300534061347620,T_String,AWI,unknown,North
2022-08-05T04:00:11Z,2022,4,0,217.1668,217.1668,89.30483,9.1588,-999.0,-999.0,-999.0,no,no,no,300534061347620,T_String,AWI,unknown,North
2022-08-05T06:00:17Z,2022,6,0,217.2502,217.2502,89.3034,9.75422,-999.0,-999.0,-999.0,no,no,no,300534061347620,T_String,AWI,unknown,North
2022-08-05T08:00:14Z,2022,8,0,217.3335,217.3335,89.29982,10.39163,-999.0,-999.0,-999.0,no,no,no,300534061347620,T_String,AWI,unknown,North
2022-08-05T10:00:11Z,2022,10,0,217.4168,217.4168,89.29541,10.85433,-999.0,-999.0,-999.0,no,no,no,300534061347620,T_String,AWI,unknown,North
2022-08-05T12:00:17Z,2022,12,0,217.5002,217.5002,89.2916,11.13536,-999.0,-999.0,-999.0,no,no,no,300534061347620,T_String,AWI,unknown,North
2022-08-05T14:00:14Z,2022,14,0,217.5835,217.5835,89.28916,11.36371,-999.0,-999.0,-999.0,no,no,no,300534061347620,T_String,AWI,unknown,North
2022-08-05T16:00:11Z,2022,16,0,217.6668,217.6668,89.28765,11.70454,-999.0,-999.0,-999.0,no,no,no,300534061347620,T_String,AWI,unknown,North
2022-08-05T18:00:17Z,2022,18,0,217.7502,217.7502,89.28542,12.24326,-999.0,-999.0,-999.0,no,no,no,300534061347620,T_String,AWI,unknown,North
2022-08-05T20:00:14Z,2022,20,0,217.8335,217.8335,89.28136,12.8702,-999.0,-999.0,-999.0,no,no,no,300534061347620,T_String,AWI,unknown,North
2022-08-05T22:00:11Z,2022,22,0,217.9168,217.9168,89.27553,13.32935,-999.0,-999.0,-999.0,no,no,no,300534061347620,T_String,AWI,unknown,North
2022-08-06T00:00:17Z,2022,0,0,218.0002,218.0002,89.27105,13.54522,-999.0,-999.0,-999.0,no,no,no,300534061347620,T_String,AWI,unknown,North
2022-08-06T02:00:14Z,2022,2,0,218.0835,218.0835,89.26852,13.6716,-999.0,-999.0,-999.0,no,no,no,300534061347620,T_String,AWI,unknown,North
2022-08-06T04:00:11Z,2022,4,0,218.1668,218.1668,89.26534,13.86231,-999.0,-999.0,-999.0,no,no,no,300534061347620,T_String,AWI,unknown,North
2022-08-06T06:00:17Z,2022,6,0,218.2502,218.2502,89.26145,14.0597,-999.0,-999.0,-999.0,no,no,no,300534061347620,T_String,AWI,unknown,North
2022-08-06T08:00:14Z,2022,8,0,218.3335,218.3335,89.25692,14.22433,-999.0,-999.0,-999.0,no,no,no,300534061347620,T_String,AWI,unknown,North
2022-08-06T10:00:11Z,2022,10,0,218.4168,218.4168,89.25175,14.35377,-999.0,-999.0,-999.0,no,no,no,300534061347620,T_String,AWI,unknown,North
2022-08-06T12:00:17Z,2022,12,0,218.5002,218.5002,89.24753,14.35283,-999.0,-999.0,-999.0,no,no,no,300534061347620,T_String,AWI,unknown,North
2022-08-06T14:00:14Z,2022,14,0,218.5835,218.5835,89.24498,14.31159,-999.0,-999.0,-999.0,no,no,no,300534061347620,T_String,AWI,unknown,North
2022-08-06T16:00:11Z,2022,16,0,218.6668,218.6668,89.24382,14.36561,-999.0,-999.0,-999.0,no,no,no,300534061347620,T_String,AWI,unknown,North
2022-08-06T18:00:17Z,2022,18,0,218.7502,218.7502,89.24202,14.53324,-999.0,-999.0,-999.0,no,no,no,300534061347620,T_String,AWI,unknown,North
2022-08-06T20:00:14Z,2022,20,0,218.8335,218.8335,89.23893,14.68639,-999.0,-999.0,-999.0,no,no,no,300534061347620,T_String,AWI,unknown,North
2022-08-06T22:00:11Z,2022,22,0,218.9168,218.9168,89.2355,14.72755,-999.0,-999.0,-999.0,no,no,no,300534061347620,T_String,AWI,unknown,North
2022-08-07T00:00:17Z,2022,0,0,219.0002,219.0002,89.23284,14.64666,-999.0,-999.0,-999.0,no,no,no,300534061347620,T_String,AWI,unknown,North
2022-08-07T02:00:14Z,2022,2,0,219.0835,219.0835,89.23095,14.57756,-999.0,-999.0,-999.0,no,no,no,300534061347620,T_String,AWI,unknown,North
2022-08-07T04:00:11Z,2022,4,0,219.1668,219.1668,89.22939,14.55076,-999.0,-999.0,-999.0,no,no,no,300534061347620,T_String,AWI,unknown,North
2022-08-07T06:00:17Z,2022,6,0,219.2502,219.2502,89.22722,14.57487,-999.0,-999.0,-999.0,no,no,no,300534061347620,T_String,AWI,unknown,North
2022-08-07T08:00:14Z,2022,8,0,219.3335,219.3335,89.22395,14.59712,-999.0,-999.0,-999.0,no,no,no,300534061347620,T_String,AWI,unknown,North
2022-08-07T10:00:11Z,2022,10,0,219.4168,219.4168,89.2204,14.51207,-999.0,-999.0,-999.0,no,no,no,300534061347620,T_String,AWI,unknown,North
2022-08-07T12:00:17Z,2022,12,0,219.5002,219.5002,89.2176,14.34692,-999.0,-999.0,-999.0,no,no,no,300534061347620,T_String,AWI,unknown,North
2022-08-07T14:00:14Z,2022,14,0,219.5835,219.5835,89.21556,14.16851,-999.0,-999.0,-999.0,no,no,no,300534061347620,T_String,AWI,unknown,North
2022-08-07T16:00:11Z,2022,16,0,219.6668,219.6668,89.2139,14.04928,-999.0,-999.0,-999.0,no,no,no,300534061347620,T_String,AWI,unknown,North
2022-08-07T18:00:17Z,2022,18,0,219.7502,219.7502,89.21192,14.01254,-999.0,-999.0,-999.0,no,no,no,300534061347620,T_String,AWI,unknown,North
2022-08-07T20:00:14Z,2022,20,0,219.8335,219.8335,89.20873,13.99116,-999.0,-999.0,-999.0,no,no,no,300534061347620,T_String,AWI,unknown,North
2022-08-07T22:00:11Z,2022,22,0,219.9168,219.9168,89.20512,13.88936,-999.0,-999.0,-999.0,no,no,no,300534061347620,T_String,AWI,unknown,North
2022-08-08T00:00:17Z,2022,0,0,220.0002,220.0002,89.20244,13.72542,-999.0,-999.0,-999.0,no,no,no,300534061347620,T_String,AWI,unknown,North
2022-08-08T02:00:14Z,2022,2,0,220.0835,220.0835,89.2007,13.59932,-999.0,-999.0,-999.0,no,no,no,300534061347620,T_String,AWI,unknown,North
2022-08-08T04:00:11Z,2022,4,0,220.1668,220.1668,89.19817,13.55239,-999.0,-999.0,-999.0,no,no,no,300534061347620,T_String,AWI,unknown,North
2022-08-08T06:00:17Z,2022,6,0,220.2502,220.2502,89.1944,13.56205,-999.0,-999.0,-999.0,no,no,no,300534061347620,T_String,AWI,unknown,North
2022-08-08T08:00:14Z,2022,8,0,220.3335,220.3335,89.1892,13.55026,-999.0,-999.0,-999.0,no,no,no,300534061347620,T_String,AWI,unknown,North
2022-08-08T10:00:11Z,2022,10,0,220.4168,220.4168,89.18327,13.45418,-999.0,-999.0,-999.0,no,no,no,300534061347620,T_String,AWI,unknown,North
2022-08-08T12:00:17Z,2022,12,0,220.5002,220.5002,89.17726,13.27653,-999.0,-999.0,-999.0,no,no,no,300534061347620,T_String,AWI,unknown,North
2022-08-08T14:00:14Z,2022,14,0,220.5835,220.5835,89.17225,13.06489,-999.0,-999.0,-999.0,no,no,no,300534061347620,T_String,AWI,unknown,North
2022-08-08T16:00:11Z,2022,16,0,220.6668,220.6668,89.16839,12.92864,-999.0,-999.0,-999.0,no,no,no,300534061347620,T_String,AWI,unknown,North
2022-08-08T18:00:17Z,2022,18,0,220.7502,220.7502,89.16377,12.93936,-999.0,-999.0,-999.0,no,no,no,300534061347620,T_String,AWI,unknown,North
2022-08-08T20:00:14Z,2022,20,0,220.8335,220.8335,89.15644,13.03921,-999.0,-999.0,-999.0,no,no,no,300534061347620,T_String,AWI,unknown,North
2022-08-08T22:00:11Z,2022,22,0,220.9168,220.9168,89.14625,13.04727,-999.0,-999.0,-999.0,no,no,no,300534061347620,T_String,AWI,unknown,North
2022-08-09T00:00:17Z,2022,0,0,221.0002,221.0002,89.13439,12.80651,-999.0,-999.0,-999.0,no,no,no,300534061347620,T_String,AWI,unknown,North
2022-08-09T02:00:14Z,2022,2,0,221.0835,221.0835,89.12532,12.46425,-999.0,-999.0,-999.0,no,no,no,300534061347620,T_String,AWI,unknown,North
2022-08-09T04:00:11Z,2022,4,0,221.1668,221.1668,89.11745,12.26648,-999.0,-999.0,-999.0,no,no,no,300534061347620,T_String,AWI,unknown,North
2022-08-09T06:00:17Z,2022,6,0,221.2502,221.2502,89.10895,12.24777,-999.0,-999.0,-999.0,no,no,no,300534061347620,T_String,AWI,unknown,North
2022-08-09T08:00:14Z,2022,8,0,221.3335,221.3335,89.09794,12.25374,-999.0,-999.0,-999.0,no,no,no,300534061347620,T_String,AWI,unknown,North
2022-08-09T10:00:11Z,2022,10,0,221.4168,221.4168,89.0856,12.19461,-999.0,-999.0,-999.0,no,no,no,300534061347620,T_String,AWI,unknown,North
2022-08-09T12:00:17Z,2022,12,0,221.5002,221.5002,89.07399,12.00816,-999.0,-999.0,-999.0,no,no,no,300534061347620,T_String,AWI,unknown,North
2022-08-09T14:00:14Z,2022,14,0,221.5835,221.5835,89.06475,11.77604,-999.0,-999.0,-999.0,no,no,no,300534061347620,T_String,AWI,unknown,North
2022-08-09T16:00:11Z,2022,16,0,221.6668,221.6668,89.05831,11.56071,-999.0,-999.0,-999.0,no,no,no,300534061347620,T_String,AWI,unknown,North
2022-08-09T18:00:17Z,2022,18,0,221.7502,221.7502,89.05174,11.53693,-999.0,-999.0,-999.0,no,no,no,300534061347620,T_String,AWI,unknown,North
2022-08-09T20:00:14Z,2022,20,0,221.8335,221.8335,89.04379,11.56719,-999.0,-999.0,-999.0,no,no,no,300534061347620,T_String,AWI,unknown,North
2022-08-09T22:00:11Z,2022,22,0,221.9168,221.9168,89.03519,11.54559,-999.0,-999.0,-999.0,no,no,no,300534061347620,T_String,AWI,unknown,North
2022-08-10T00:00:17Z,2022,0,0,222.0002,222.0002,89.02772,11.43957,-999.0,-999.0,-999.0,no,no,no,300534061347620,T_String,AWI,unknown,North
2022-08-10T02:00:14Z,2022,2,0,222.0835,222.0835,89.02199,11.39365,-999.0,-999.0,-999.0,no,no,no,300534061347620,T_String,AWI,unknown,North
2022-08-10T04:00:11Z,2022,4,0,222.1668,222.1668,89.01708,11.41304,-999.0,-999.0,-999.0,no,no,no,300534061347620,T_String,AWI,unknown,North
2022-08-10T06:00:17Z,2022,6,0,222.2502,222.2502,89.01134,11.53646,-999.0,-999.0,-999.0,no,no,no,300534061347620,T_String,AWI,unknown,North
2022-08-10T08:00:14Z,2022,8,0,222.3335,222.3335,89.00334,11.69122,-999.0,-999.0,-999.0,no,no,no,300534061347620,T_String,AWI,unknown,North
2022-08-10T10:00:11Z,2022,10,0,222.4168,222.4168,88.9927,11.83294,-999.0,-999.0,-999.0,no,no,no,300534061347620,T_String,AWI,unknown,North
2022-08-10T12:00:17Z,2022,12,0,222.5002,222.5002,88.9827,11.91867,-999.0,-999.0,-999.0,no,no,no,300534061347620,T_String,AWI,unknown,North
2022-08-10T14:00:14Z,2022,14,0,222.5835,222.5835,88.97465,11.97874,-999.0,-999.0,-999.0,no,no,no,300534061347620,T_String,AWI,unknown,North
2022-08-10T16:00:11Z,2022,16,0,222.6668,222.6668,88.96825,12.04256,-999.0,-999.0,-999.0,no,no,no,300534061347620,T_String,AWI,unknown,North
2022-08-10T18:00:17Z,2022,18,0,222.7502,222.7502,88.96291,12.13418,-999.0,-999.0,-999.0,no,no,no,300534061347620,T_String,AWI,unknown,North
2022-08-10T20:00:14Z,2022,20,0,222.8335,222.8335,88.95752,12.29191,-999.0,-999.0,-999.0,no,no,no,300534061347620,T_String,AWI,unknown,North
2022-08-10T22:00:11Z,2022,22,0,222.9168,222.9168,88.95037,12.5046,-999.0,-999.0,-999.0,no,no,no,300534061347620,T_String,AWI,unknown,North
2022-08-11T00:00:17Z,2022,0,0,223.0002,223.0002,88.94165,12.67325,-999.0,-999.0,-999.0,no,no,no,300534061347620,T_String,AWI,unknown,North
2022-08-11T02:00:14Z,2022,2,0,223.0835,223.0835,88.93393,12.76015,-999.0,-999.0,-999.0,no,no,no,300534061347620,T_String,AWI,unknown,North
2022-08-11T04:00:11Z,2022,4,0,223.1668,223.1668,88.92807,12.82494,-999.0,-999.0,-999.0,no,no,no,300534061347620,T_String,AWI,unknown,North
2022-08-11T06:00:17Z,2022,6,0,223.2502,223.2502,88.92325,12.94955,-999.0,-999.0,-999.0,no,no,no,300534061347620,T_String,AWI,unknown,North
2022-08-11T08:00:14Z,2022,8,0,223.3335,223.3335,88.91751,13.13551,-999.0,-999.0,-999.0,no,no,no,300534061347620,T_String,AWI,unknown,North
2022-08-11T10:00:11Z,2022,10,0,223.4168,223.4168,88.90926,13.33648,-999.0,-999.0,-999.0,no,no,no,300534061347620,T_String,AWI,unknown,North
2022-08-11T12:00:17Z,2022,12,0,223.5002,223.5002,88.90017,13.45675,-999.0,-999.0,-999.0,no,no,no,300534061347620,T_String,AWI,unknown,North
2022-08-11T14:00:14Z,2022,14,0,223.5835,223.5835,88.89197,13.48265,-999.0,-999.0,-999.0,no,no,no,300534061347620,T_String,AWI,unknown,North
2022-08-11T16:00:11Z,2022,16,0,223.6668,223.6668,88.88549,13.53083,-999.0,-999.0,-999.0,no,no,no,300534061347620,T_String,AWI,unknown,North
2022-08-11T18:00:17Z,2022,18,0,223.7502,223.7502,88.87941,13.65802,-999.0,-999.0,-999.0,no,no,no,300534061347620,T_String,AWI,unknown,North
2022-08-11T20:00:14Z,2022,20,0,223.8335,223.8335,88.87255,13.80816,-999.0,-999.0,-999.0,no,no,no,300534061347620,T_String,AWI,unknown,North
2022-08-11T22:00:11Z,2022,22,0,223.9168,223.9168,88.86478,13.93651,-999.0,-999.0,-999.0,no,no,no,300534061347620,T_String,AWI,unknown,North
2022-08-12T00:00:17Z,2022,0,0,224.0002,224.0002,88.85704,14.01175,-999.0,-999.0,-999.0,no,no,no,300534061347620,T_String,AWI,unknown,North
2022-08-12T02:00:14Z,2022,2,0,224.0835,224.0835,88.85087,14.0493,-999.0,-999.0,-999.0,no,no,no,300534061347620,T_String,AWI,unknown,North
2022-08-12T04:00:11Z,2022,4,0,224.1668,224.1668,88.84625,14.11955,-999.0,-999.0,-999.0,no,no,no,300534061347620,T_String,AWI,unknown,North
2022-08-12T06:00:17Z,2022,6,0,224.2502,224.2502,88.84159,14.2287,-999.0,-999.0,-999.0,no,no,no,300534061347620,T_String,AWI,unknown,North
2022-08-12T08:00:14Z,2022,8,0,224.3335,224.3335,88.83555,14.35513,-999.0,-999.0,-999.0,no,no,no,300534061347620,T_String,AWI,unknown,North
2022-08-12T10:00:11Z,2022,10,0,224.4168,224.4168,88.82776,14.46282,-999.0,-999.0,-999.0,no,no,no,300534061347620,T_String,AWI,unknown,North
2022-08-12T12:00:17Z,2022,12,0,224.5002,224.5002,88.8199,14.51772,-999.0,-999.0,-999.0,no,no,no,300534061347620,T_String,AWI,unknown,North
2022-08-12T14:00:14Z,2022,14,0,224.5835,224.5835,88.81387,14.5458,-999.0,-999.0,-999.0,no,no,no,300534061347620,T_String,AWI,unknown,North
2022-08-12T16:00:11Z,2022,16,0,224.6668,224.6668,88.80994,14.63129,-999.0,-999.0,-999.0,no,no,no,300534061347620,T_String,AWI,unknown,North
2022-08-12T18:00:17Z,2022,18,0,224.7502,224.7502,88.80695,14.80503,-999.0,-999.0,-999.0,no,no,no,300534061347620,T_String,AWI,unknown,North
2022-08-12T20:00:14Z,2022,20,0,224.8335,224.8335,88.80375,15.01102,-999.0,-999.0,-999.0,no,no,no,300534061347620,T_String,AWI,unknown,North